Clarksdale Fletcher Field Air, MS

6:49 PM CDT on October 21, 2019 (GMT -0500)
Fletcher

Weather History for KCKM - August, 2019

Change the Weather History Date:

Saturday, August 24, 2019

  Actual Average (KUOX) Record (KUOX)
Temperature  
Mean Temperature 82 °F -  
Max Temperature 91 °F 89 °F 103 °F (1938)
Min Temperature 73 °F 65 °F 53 °F (1966)
Cooling Degree Days 17    
Growing Degree Days 32 (Base 50)    
Moisture  
Dew Point 76 °F    
Average Humidity 89    
Maximum Humidity 100    
Minimum Humidity 55    
Precipitation  
Precipitation 0.75 in - - ()
Sea Level Pressure  
Sea Level Pressure 29.99 in    
Wind  
Wind Speed 2 mph ()    
Max Wind Speed 12 mph    
Max Gust Speed 18 mph    
Visibility 9.3 miles    
Events      
Averages and records for this station are not official NWS values.
T = Trace of Precipitation, MM = Missing Value Source: Averaged Metar Reports

Daily Weather History Graph

Daily Weather History Graph

Search for Another Location

Airport or City:

Astronomy

Aug. 24, 2019 Rise Set
Actual Time 6:29 AM CDT 7:38 PM CDT
Civil Twilight 6:03 AM CDT 8:04 PM CDT
Nautical Twilight 5:32 AM CDT 8:35 PM CDT
Astronomical Twilight 5:00 AM CDT 9:07 PM CDT
Moon 12:28 AM CDT (8/24) 2:47 PM CDT (8/24)
Length of Visible Light 14h 01m
Length of Day
13h 09m
Last Quarter, 39% of the Moon is Illuminated
Aug 24
Last Quarter
Aug 30
New
Sep 5
First Quarter
Sep 13
Full
Sep 21
Last Quarter

Hourly Weather History & Observations

Time (CDT) Temp. Heat Index Dew Point Humidity Pressure Visibility Wind Dir Wind Speed Gust Speed Precip Events Conditions
12:15 AM 78.8 °F - 78.8 °F 100% 29.99 in 10.0 mi East 5.8 mph - N/A   Unknown
12:35 AM 78.8 °F - 78.8 °F 100% 29.99 in 10.0 mi Calm Calm - N/A   Unknown
12:55 AM 77.0 °F - 77.0 °F 100% 29.99 in 10.0 mi Calm Calm - N/A   Unknown
1:15 AM 77.0 °F - 77.0 °F 100% 29.99 in 10.0 mi Calm Calm - N/A   Unknown
1:35 AM 77.0 °F - 77.0 °F 100% 29.99 in 10.0 mi Calm Calm - N/A   Unknown
1:55 AM 77.0 °F - 77.0 °F 100% 29.99 in 10.0 mi ENE 4.6 mph - N/A   Unknown
2:15 AM 77.0 °F - 77.0 °F 100% 29.99 in 10.0 mi East 4.6 mph - N/A   Unknown
2:35 AM 75.2 °F - 75.2 °F 100% 30.00 in 10.0 mi Calm Calm - N/A   Unknown
2:55 AM 75.2 °F - 75.2 °F 100% 30.00 in 10.0 mi ENE 4.6 mph - N/A   Unknown
3:15 AM 75.2 °F - 75.2 °F 100% 30.00 in 10.0 mi Calm Calm - N/A   Unknown
3:35 AM 75.2 °F - 75.2 °F 100% 30.00 in 10.0 mi Calm Calm - N/A   Unknown
3:55 AM 75.2 °F - 75.2 °F 100% 30.00 in 10.0 mi Calm Calm - N/A   Unknown
4:15 AM 75.2 °F - 75.2 °F 100% 30.01 in 10.0 mi Calm Calm - N/A   Unknown
4:35 AM 75.2 °F - 75.2 °F 100% 30.01 in 10.0 mi Calm Calm - N/A   Unknown
4:55 AM 75.2 °F - 75.2 °F 100% 30.01 in 10.0 mi East 4.6 mph - N/A   Unknown
5:15 AM 75.2 °F - 75.2 °F 100% 30.01 in 10.0 mi Calm Calm - N/A   Unknown
5:35 AM 73.4 °F - 73.4 °F 100% 30.01 in 10.0 mi Calm Calm - N/A   Unknown
5:55 AM 73.4 °F - 73.4 °F 100% 30.02 in 10.0 mi Calm Calm - N/A   Unknown
6:15 AM 73.4 °F - 73.4 °F 100% 30.03 in 10.0 mi Calm Calm - N/A   Unknown
6:35 AM 73.4 °F - 73.4 °F 100% 30.02 in 9.0 mi Calm Calm - N/A   Unknown
6:55 AM 73.4 °F - 73.4 °F 100% 30.03 in 9.0 mi Calm Calm - N/A   Unknown
7:15 AM 75.2 °F - 75.2 °F 100% 30.03 in 9.0 mi Calm Calm - N/A   Unknown
7:35 AM 75.2 °F - 75.2 °F 100% 30.03 in 9.0 mi ESE 4.6 mph - N/A   Unknown
7:55 AM 75.2 °F - 75.2 °F 100% 30.03 in 10.0 mi ESE 5.8 mph - N/A   Unknown
8:15 AM 77.0 °F - 77.0 °F 100% 30.03 in 10.0 mi Calm Calm - N/A   Unknown
8:35 AM 78.8 °F - 78.8 °F 100% 30.03 in 10.0 mi Calm Calm - N/A   Unknown
8:55 AM 80.6 °F 88.1 °F 78.8 °F 94% 30.03 in 10.0 mi Calm Calm - N/A   Unknown
9:15 AM 80.6 °F 88.1 °F 78.8 °F 94% 30.03 in 10.0 mi Calm Calm - N/A   Unknown
9:35 AM 80.6 °F 88.1 °F 78.8 °F 94% 30.03 in 10.0 mi Calm Calm - N/A   Unknown
9:55 AM 82.4 °F 92.4 °F 78.8 °F 89% 30.03 in 10.0 mi Calm Calm - N/A   Unknown
10:15 AM 82.4 °F 90.9 °F 77.0 °F 84% 30.03 in 10.0 mi Calm Calm - N/A   Unknown
10:55 AM 86.0 °F 96.9 °F 77.0 °F 74% 30.02 in 10.0 mi Calm Calm - N/A   Unknown
11:15 AM 86.0 °F 96.9 °F 77.0 °F 74% 30.02 in 10.0 mi Calm Calm - N/A   Unknown
11:35 AM 86.0 °F 96.9 °F 77.0 °F 74% 30.02 in 10.0 mi SE 4.6 mph - N/A   Unknown
11:55 AM 87.8 °F 99.7 °F 77.0 °F 70% 30.02 in 10.0 mi Variable 5.8 mph - N/A   Unknown
12:15 PM 87.8 °F 99.7 °F 77.0 °F 70% 30.02 in 10.0 mi Variable 4.6 mph - N/A   Unknown
12:35 PM 87.8 °F 99.7 °F 77.0 °F 70% 30.01 in - Variable 3.5 mph - N/A   Unknown
1:15 PM 89.6 °F 99.8 °F 75.2 °F 62% 30.00 in 10.0 mi Variable 4.6 mph - N/A   Unknown
1:35 PM 89.6 °F 99.8 °F 75.2 °F 62% 29.98 in 10.0 mi Calm Calm - N/A   Unknown
1:55 PM 89.6 °F 98.2 °F 73.4 °F 59% 29.98 in 10.0 mi Calm Calm - N/A   Unknown
2:15 PM 89.6 °F 102.2 °F 77.0 °F 66% 29.97 in 10.0 mi SW 5.8 mph - N/A   Unknown
2:35 PM 89.6 °F 98.2 °F 73.4 °F 59% 29.97 in 10.0 mi Calm Calm - N/A   Unknown
3:15 PM 91.4 °F 102.5 °F 75.2 °F 59% 29.96 in 10.0 mi Calm Calm - N/A   Unknown
3:55 PM 91.4 °F 100.1 °F 73.4 °F 55% 29.94 in 10.0 mi Calm Calm - N/A   Unknown
4:15 PM 91.4 °F 105.1 °F 77.0 °F 63% 29.93 in 10.0 mi Calm Calm - N/A   Unknown
4:35 PM 87.8 °F 102.5 °F 78.8 °F 75% 29.93 in 10.0 mi ENE 11.5 mph 17.3 mph N/A   Unknown
4:55 PM 87.8 °F 99.7 °F 77.0 °F 70% 29.93 in 10.0 mi NE 10.4 mph - N/A   Unknown
5:35 PM 87.8 °F 99.7 °F 77.0 °F 70% 29.94 in 10.0 mi NE 8.1 mph - N/A   Unknown
5:55 PM 86.0 °F 96.9 °F 77.0 °F 74% 29.93 in 10.0 mi Calm Calm - N/A   Unknown
6:15 PM 86.0 °F 99.3 °F 78.8 °F 79% 29.94 in 10.0 mi NNE 4.6 mph - N/A   Unknown
6:35 PM 86.0 °F 96.9 °F 77.0 °F 74% 29.94 in 10.0 mi NNE 4.6 mph - N/A   Unknown
6:55 PM 82.4 °F 92.4 °F 78.8 °F 89% 29.95 in 10.0 mi NNW 9.2 mph - N/A   Unknown
7:15 PM 78.8 °F - 78.8 °F 100% 29.96 in 1.8 mi WNW 6.9 mph 15.0 mph N/A   Mist
7:35 PM 77.0 °F - 77.0 °F 100% 29.97 in 0.8 mi NNE 9.2 mph - N/A   Mist
7:55 PM 77.0 °F - 77.0 °F 100% 29.97 in 4.0 mi NE 11.5 mph 18.4 mph 0.44 in   Mist
8:15 PM 77.0 °F - 77.0 °F 100% 29.96 in 10.0 mi North 6.9 mph - N/A   Unknown
8:35 PM 77.0 °F - 77.0 °F 100% 29.97 in 10.0 mi NW 3.5 mph - N/A   Unknown
8:55 PM 77.0 °F - 77.0 °F 100% 29.99 in 4.0 mi SW 8.1 mph - 0.13 in   Mist
9:15 PM 77.0 °F - 77.0 °F 100% 29.99 in 2.5 mi NE 4.6 mph - N/A   Mist
9:35 PM 77.0 °F - 77.0 °F 100% 30.00 in 4.0 mi Calm Calm - N/A   Mist
9:55 PM 75.2 °F - 75.2 °F 100% 30.00 in 10.0 mi Calm Calm - 0.17 in   Unknown
10:35 PM 75.2 °F - 75.2 °F 100% 30.01 in 10.0 mi Calm Calm - N/A   Unknown
10:55 PM 73.4 °F - 73.4 °F 100% 30.01 in 10.0 mi East 10.4 mph - 0.01 in   Unknown
11:15 PM 73.4 °F - 73.4 °F 100% 30.01 in 10.0 mi East 6.9 mph - N/A   Unknown
11:55 PM 75.2 °F - 75.2 °F 100% 30.01 in 10.0 mi East 4.6 mph - N/A   Unknown